Regional Weather Roundup
Issued by NWS

Home | Current Version | Previous Version | Graphics & Text | Print | Product List | Glossary On
Versions: 1 2 3 4 5 6 7 8 9 10 11 12 13 14 15 16 17 18 19 20 21 22 23 24 25 26 27 28 29 30 31 32 33 34 35 36 37 38 39 40 41 42 43 44 45 46 47 48 49 50
000
ASUS45 KBOU 262307
RWRCO

WEATHER ROUNDUP FOR COLORADO
NATIONAL WEATHER SERVICE DENVER/BOULDER CO
500 PM MDT THU MAY 26 2016

NOTE: "FAIR" INDICATES FEW OR NO CLOUDS BELOW 12000 FEET WITH NO
SIGNIFICANT WEATHER AND/OR OBSTRUCTIONS TO VISIBILITY.

COZ001>005-013-030-031-270000-
...NORTHWEST COLORADO...

CITY           SKY/WX    TMP DP  RH WIND       PRES   REMARKS
CRAIG          FAIR      65  31  28 NW10G18   29.88F
HAYDEN         FAIR      61  28  29 NE14      29.89S
MEEKER         PTSUNNY   59  36  42 W8        29.92R
MOUNT WERNER   NOT AVBL
STEAMBOAT SPGS PTSUNNY   55  28  36 NW12G22   29.92R
WALDEN         FAIR      50  32  50 SE8       30.00F
$$

COZ006>008-011-270000-
...WEST CENTRAL VALLEYS...

CITY           SKY/WX    TMP DP  RH WIND       PRES   REMARKS
GRAND JUNCTION FAIR      70  25  18 SW10G17   29.83S
MONTROSE       FAIR      62  33  33 SE17      29.92F
EAGLE          LGT RAIN  52  36  54 N9        29.96R
RIFLE          FAIR      63  30  28 NW28G38   29.86R
DELTA          NOT AVBL
NUCLA          FAIR      61  30  31 S12G18    29.96F
$$

COZ017>023-064>068-270000-
...SOUTHWEST COLORADO...

CITY           SKY/WX    TMP DP  RH WIND       PRES   REMARKS
DURANGO        FAIR      61  22  22 N16       29.91S
CORTEZ         FAIR      59  32  36 NE14      29.93F
PAGOSA SPRINGS CLOUDY    55  19  24 NW5       29.95S
TELLURIDE      CLOUDY    37  36  95 SE8       30.10F
WOLF CREEK PAS CLOUDY    27  27 100 NE6       30.13S WCI  20
$$

COZ009-010-012-014-032>034-037-058>063-270000-
...CENTRAL COLORADO...

CITY           SKY/WX    TMP DP  RH WIND       PRES   REMARKS
ASPEN          FAIR      53  28  38 S9        29.95F
BUENA VISTA    CLOUDY    50  32  49 NW18      29.95S
COPPER MTN     NOT AVBL
BERTHOUD PASS  CLOUDY    28  18  64 N9        30.12F WCI  20
COTTONWOOD PAS LGT SNOW  43  32  65 CALM      30.02F
GUNNISON       FAIR      48  34  57 W5        30.00S
KREMMLING      FAIR      55  28  35 N14G21    29.96S
LEADVILLE      FAIR      42  28  57 VRB7      30.02R
MONARCH PASS   FLURRIES  32  28  86 SW9G22    30.20S WCI  24
SALIDA         CLOUDY    52  37  58 SE10G16   30.00F
SUNLIGHT       FLURRIES  39  30  70 CALM      30.10F
WILKERSON PASS CLOUDY    32  30  93 E8G16     30.09F FOG     WCI  25
$$

COZ069>075-270000-
...SAN LUIS VALLEY/SANGRE DE CRISTO MOUNTAINS...

CITY           SKY/WX    TMP DP  RH WIND       PRES   REMARKS
ALAMOSA        CLOUDY    51  32  48 W30G36    29.96R
LA VETA PASS   MIX PCPN  37  34  87 CALM      30.01F
SAGUACHE       FAIR      50  32  50 NW29G36   29.95S
$$

COZ035-036-038>040-270000-
...NORTHERN COLORADO FRONT RANGE...

CITY           SKY/WX    TMP DP  RH WIND       PRES   REMARKS
DENVER INTL AP LGT RAIN  47  43  86 NE26      29.90F
DMNS CITY PARK   N/A     49  44  81 N13G18    29.94R
AURORA         LGT RAIN  47  44  88 NE1       29.94R
FRONT RANGE AP RAIN      46  43  87 N12       29.93S
ERIE MUNI ARPT CLOUDY    51  47  86 N13       29.94R
BOULDER MUN AP CLOUDY    52  41  66 N12G18    29.93S
CENTENNIAL     TSTM      50  41  71 N6        29.93R
BROOMFIELD     PTSUNNY   52  45  76 N13       29.94
FORT COLLINS   FAIR      50  45  81 N10       29.95S
LONGMONT       CLOUDY    54  45  71 N8G17     29.95F
$$

COZ041-046-047-076>085-087-088-270000-
...PIKES PEAK/PALMER DIVIDE AND SOUTHERN FOOTHILLS...

CITY           SKY/WX    TMP DP  RH WIND       PRES   REMARKS
COLO. SPRINGS  LGT RAIN  46  39  76 N15       29.92R
A. F. ACADEMY  LGT RAIN  46  41  81 S5        29.94R
SCHRIEVER AFB  NOT AVBL
ELLICOTT       LGT RAIN N/A N/A N/A N14       29.91S
FALCON         LGT RAIN  41  36  84 N5        29.96R
FORT CARSON    PTSUNNY   50  42  73 N16G26    29.88R
LIMON          TSTM      45  43  93 W23G33    29.92R FOG
MONUMENT HILL  LGT RAIN  43  37  81 E6        29.97R
TRINIDAD       FAIR      64  37  36 N25       29.74F
$$

COZ042>045-048>051-090-091-270000-
...NORTHEAST COLORADO...

CITY           SKY/WX    TMP DP  RH WIND       PRES   REMARKS
GREELEY ARPT   CLOUDY    48  45  87 N18G26    29.95S
AKRON          FAIR      65  44  46 NE16      29.80F
BURLINGTON     CLOUDY    69  53  56 E16G25    29.71F
WRAY           NOT AVBL
STERLING       CLOUDY    61  41  48 N23G36    29.82R
HOLYOKE        NOT AVBL
FORT MORGAN    TSTM      50  44  80 NW20G29   29.87R
$$

COZ086-089-092>099-270000-
...SOUTHEAST COLORADO...

CITY           SKY/WX    TMP DP  RH WIND       PRES   REMARKS
PUEBLO         LGT RAIN  59  42  53 N18       29.77F
LA JUNTA       FAIR      57  47  69 N23G36    29.71R
LAMAR          FAIR      77  50  38 E9        29.64R
SPRINGFIELD      N/A     82  14   8 S30G38    29.65F
$$



USA.gov is the U.S. government's official web portal to all federal, state and local government web resources and services.